TimeMST,TemperatureF,Dew PointF,Humidity,Sea Level PressureIn,VisibilityMPH,Wind Direction,Wind SpeedMPH,Gust SpeedMPH,PrecipitationIn,Events,Conditions,WindDirDegrees,DateUTC
12:53 AM,39.0,34.0,82,30.13,10.0,South,6.9,-,0.00,Rain,Light Rain,190,2013-11-14 07:53:00
1:53 AM,37.9,33.1,83,30.15,10.0,Calm,Calm,-,0.00,,Overcast,0,2013-11-14 08:53:00
2:53 AM,35.1,32.0,89,30.17,10.0,WSW,4.6,-,N/A,,Overcast,240,2013-11-14 09:53:00
3:53 AM,30.9,28.9,92,30.19,10.0,Calm,Calm,-,N/A,,Scattered Clouds,0,2013-11-14 10:53:00
4:53 AM,28.0,26.1,92,30.23,10.0,NW,4.6,-,N/A,,Scattered Clouds,310,2013-11-14 11:53:00
5:53 AM,27.0,25.0,92,30.27,10.0,Calm,Calm,-,N/A,,Scattered Clouds,0,2013-11-14 12:53:00
6:53 AM,24.1,21.9,91,30.27,10.0,Calm,Calm,-,N/A,,Clear,0,2013-11-14 13:53:00
7:53 AM,27.0,25.0,92,30.28,10.0,Calm,Calm,-,N/A,,Clear,0,2013-11-14 14:53:00
8:53 AM,32.0,28.9,88,30.27,10.0,Calm,Calm,-,N/A,,Clear,0,2013-11-14 15:53:00
9:53 AM,39.9,30.9,70,30.21,10.0,Calm,Calm,-,N/A,,Clear,0,2013-11-14 16:53:00
10:53 AM,44.1,30.0,58,30.14,10.0,Calm,Calm,-,N/A,,Clear,0,2013-11-14 17:53:00
11:53 AM,46.0,28.9,51,30.09,10.0,Calm,Calm,-,N/A,,Clear,0,2013-11-14 18:53:00
12:53 PM,48.0,23.0,37,30.03,10.0,SSE,3.5,-,N/A,,Clear,150,2013-11-14 19:53:00
1:53 PM,50.0,21.9,33,29.98,10.0,SSW,4.6,-,N/A,,Clear,200,2013-11-14 20:53:00
2:53 PM,50.0,21.0,32,29.95,10.0,WSW,8.1,-,N/A,,Clear,250,2013-11-14 21:53:00
3:53 PM,46.9,19.9,34,29.97,10.0,West,5.8,-,N/A,,Clear,270,2013-11-14 22:53:00
4:53 PM,41.0,24.1,51,29.99,10.0,Calm,Calm,-,N/A,,Clear,0,2013-11-14 23:53:00
5:53 PM,37.0,24.1,59,30.01,10.0,Calm,Calm,-,N/A,,Clear,0,2013-11-15 00:53:00
6:53 PM,32.0,23.0,69,30.02,10.0,Calm,Calm,-,N/A,,Clear,0,2013-11-15 01:53:00
7:53 PM,34.0,24.1,67,29.96,10.0,East,8.1,-,N/A,,Clear,90,2013-11-15 02:53:00
8:53 PM,30.9,24.1,76,29.93,10.0,Calm,Calm,-,N/A,,Clear,0,2013-11-15 03:53:00
9:53 PM,28.0,23.0,81,29.89,10.0,Calm,Calm,-,N/A,,Clear,0,2013-11-15 04:53:00
10:53 PM,28.9,23.0,78,29.85,10.0,Calm,Calm,-,N/A,,Clear,0,2013-11-15 05:53:00
11:53 PM,27.0,23.0,85,29.83,10.0,West,4.6,-,N/A,,Clear,280,2013-11-15 06:53:00